#timestamp,LO_Frequency,Hit,StdDev 
1684080015.2,286046998.4,N
1684080035.0,286046998.2,N
1684080035.9,286046998.2,N
1684080055.8,286047000.9,N
1684080075.6,286047000.6,N
1684080095.4,286047000.3,N
1684080115.3,286046998.3,N
1684080135.1,286047000.5,N
1684080155.9,286047001.2,N
1684080175.7,286047001.1,N
1684080195.5,286047000.5,N
1684080215.4,286047000.2,N
1684080235.2,286047000.8,N
1684080255.1,286046998.1,N
1684080256.0,286046998.1,N
1684080275.8,286047000.5,N
1684080295.6,286047000.3,N
1684080315.5,286046998.5,N
1684080335.3,286046998.1,N
1684080355.2,286046998.7,N
1684080375.9,286046998.9,N
1684080395.7,286046998.7,N
1684080415.6,286046998.4,N
1684080435.4,286046998.8,N
1684080455.2,286046999.3,N
1684080475.1,286046998.8,N
1684080476.0,286046998.8,N
1684080495.8,286046997.0,N
1684080515.7,286046995.5,Y
1684080535.5,286046997.0,P
1684080555.5,286046998.9,N
1684080575.3,286046998.3,N
1684080595.2,286046998.6,N
1684080615.9,286046998.1,N
1684080635.7,286047001.0,N
1684080655.6,286047000.0,N
1684080675.4,286047000.2,N
1684080695.2,286047002.2,N
1684080715.1,286047002.3,N
1684080716.0,286047002.3,N
1684080735.8,286047001.6,N
1684080755.7,286047002.5,N
1684080775.5,286047001.3,N
1684080795.3,286047002.1,N
1684080815.2,286047002.2,N
1684080835.0,286047000.1,N
1684080835.9,286047000.1,N
1684080855.8,286047002.7,N
1684080875.6,286047002.1,N
1684080895.4,286047000.1,N
1684080915.3,286047002.4,N
1684080935.1,286047004.4,N
1684080955.8,286047001.5,N
1684080975.7,286047001.3,N
1684080995.5,286047001.6,N
1684081015.4,286047004.2,N
1684081035.2,286047001.6,N
1684081055.0,286047001.6,N
1684081055.9,286047001.6,N
1684081075.8,286047002.4,N
1684081095.6,286046998.3,N
1684081115.4,286046999.7,N
1684081135.3,286047002.7,N
1684081155.1,286047002.4,N
1684081175.9,286046999.7,N
1684081195.7,286047002.7,N
1684081215.5,286047002.8,N
1684081235.4,286046999.8,N
1684081255.2,286047002.1,N
1684081275.0,286047001.9,N
1684081275.9,286047001.9,N
1684081295.8,286047000.0,N
1684081315.6,286047003.9,N
1684081335.5,286047002.0,N
1684081385.3,286047004.0,E
1684081395.2,286046998.1,N
1684081415.1,286046996.7,P
1684081416.0,286046996.7,P
1684081435.8,286046996.7,Y
1684081455.7,286047000.6,P
1684081475.5,286047000.4,N
1684081495.3,286047000.2,N
1684081515.2,286047001.9,N
1684081535.0,286047002.5,N
1684081535.9,286047002.5,N
1684081555.8,286047002.5,N
1684081575.6,286047001.9,N
1684081595.4,286047002.4,N
1684081615.3,286046999.8,N
1684081635.1,286046999.7,N
1684081655.8,286047002.1,N
1684081675.7,286047001.5,N
1684081695.5,286047002.2,N
1684081715.4,286047002.5,N
1684081735.2,286047001.6,N
1684081755.0,286047001.7,N
1684081755.9,286047001.7,N
1684081775.8,286047002.5,N
1684081795.6,286047002.6,N
1684081815.4,286047002.6,N
1684081835.3,286046999.7,N
1684081855.1,286047000.1,N
1684081875.9,286047002.6,N
1684081895.7,286047001.4,N
1684081915.5,286047004.4,Y
1684081935.4,286046999.9,P
1684081955.2,286047002.4,P
1684081975.0,286047000.1,N
1684081975.9,286047000.1,N
1684081995.8,286047000.1,N
1684082015.6,286046998.2,N
1684082035.5,286047000.8,N
1684082085.3,286047000.5,E
1684082095.3,286047000.8,N
1684082115.1,286047000.1,P
1684082116.0,286047000.1,N
1684082135.8,286047000.7,N
1684082155.7,286047000.7,N
1684082175.5,286047000.5,N
1684082195.4,286047001.0,Y
1684082215.2,286046998.6,P
1684082235.0,286047000.8,N
1684082235.9,286047000.8,N
1684082255.8,286046998.5,N
1684082275.6,286046998.4,N
1684082295.4,286047001.2,N
1684082315.3,286047000.5,N
1684082335.1,286047000.2,N
1684082355.9,286046999.8,N
1684082375.7,286047001.9,N
1684082395.5,286047000.1,N
1684082415.4,286046998.5,N
1684082435.2,286046996.5,Y
1684082455.1,286046996.8,P
1684082456.0,286046996.8,N
1684082475.8,286046999.6,N
1684082495.6,286046997.4,N
1684082515.5,286046995.7,Y
1684082535.3,286046996.9,P
1684082555.2,286046997.2,P
1684082575.9,286046995.7,P
1684082595.7,286046995.0,Y
1684082615.6,286047000.7,P
1684082635.4,286047000.6,N
1684082655.2,286047001.2,N
1684082675.1,286046998.1,N
1684082676.0,286046998.1,N
1684082695.8,286046998.2,N
1684082715.7,286046998.3,N
1684082735.5,286047000.9,N
1684082755.3,286047000.5,N
1684082775.2,286047001.1,N
1684082795.0,286047000.8,N
1684082795.9,286047000.8,N
1684082815.8,286046998.7,N
1684082835.6,286047000.4,N
1684082855.4,286047000.7,N
1684082875.3,286047000.0,N
1684082895.1,286046999.9,N
1684082915.8,286046998.2,N
1684082935.7,286047010.5,Y
1684082955.5,286047009.6,P
1684083005.4,286047006.1,E
1684083015.3,286047003.4,N
1684083035.2,286046999.3,P
1684083055.9,286046999.5,N
1684083075.7,286046999.1,N
1684083095.6,286046996.9,N
1684083115.4,286046994.9,N
1684083135.2,286046995.2,N
1684083155.1,286046995.5,N
1684083156.0,286046995.5,N
1684083175.8,286046996.3,N
1684083195.7,286046993.8,N
1684083215.5,286046996.2,N
1684083235.3,286046995.9,N
1684083255.2,286046993.5,N
1684083275.0,286046996.0,N
1684083275.9,286046996.0,N
1684083295.8,286046994.0,N
1684083315.6,286046994.3,N
1684083335.4,286046994.5,N
1684083355.3,286046993.1,N
1684083375.1,286046990.8,Y
1684083395.9,286046993.6,P
1684083415.7,286046993.8,P
1684083435.5,286046996.3,P
1684083455.4,286046995.7,Y
1684083475.2,286047000.9,P
1684083495.0,286047001.2,N
1684083496.0,286047001.2,N
1684083515.8,286047000.4,N
1684083535.6,286047000.8,N
1684083555.5,286047001.1,N
1684083575.3,286046998.5,N
1684083595.1,286047000.7,N
